{"data":{"norad_id":55989,"epoch":"2026-09-20T19:50:34.073664Z","epoch_age_seconds":77873,"freshness":"FRESH","line1":"1 55989U 23042D   26263.82678326 -.00000972  00000+0 -25809-4 0  9995","line2":"2 55989  43.0054  37.5382 0001746 282.7998  77.2658 15.27570826192713","mean_motion":15.27570826,"eccentricity":0.0001746,"inclination_deg":43.0054,"raan_deg":37.5382,"arg_perigee_deg":282.7998,"mean_anomaly_deg":77.2658,"bstar":-2.5809e-5,"rev_number":19271,"period_min":94.267314843312,"perigee_km":481.87859854476,"apogee_km":484.27453432216,"semimajor_km":6861.2135664335,"source":"CELESTRAK","updated_at":"2026-09-21T09:00:33.349999Z"}}